Date,TemperatureHighF,TemperatureAvgF,TemperatureLowF,DewpointHighF,DewpointAvgF,DewpointLowF,HumidityHigh,HumidityAvg,HumidityLow,PressureMaxIn,PressureMinIn,WindSpeedMaxMPH,WindSpeedAvgMPH,GustSpeedMaxMPH,PrecipitationSumIn
2013-4-1,55,47,38,48,42,31,98,82,52,30.03,29.87,16,2,16,0.05
2013-4-2,51,38,25,31,24,16,94,62,27,30.22,30.03,12,2,12,0.00
2013-4-3,54,37,21,29,22,16,93,61,24,30.35,30.22,8,1,8,0.00
2013-4-4,42,35,32,34,29,22,97,79,47,30.31,30.02,3,0,4,0.84
2013-4-5,56,42,33,44,37,32,98,87,50,30.12,30.00,10,1,11,0.22
2013-4-6,69,45,27,43,32,26,98,70,32,30.25,30.08,13,1,13,0.00
2013-4-7,69,56,41,46,40,33,82,58,37,30.14,30.01,15,2,15,0.00
2013-4-8,77,57,38,53,46,36,96,72,40,30.13,29.98,10,1,10,0.00
2013-4-9,80,60,41,57,50,40,98,74,40,30.17,30.00,10,1,10,0.00
2013-4-10,83,64,46,60,53,45,97,73,34,30.08,29.86,10,1,10,0.00
2013-4-11,81,65,48,61,53,46,97,71,38,29.89,29.63,12,2,13,0.55
2013-4-12,63,57,42,61,51,38,97,82,54,29.88,29.52,14,3,16,0.87
2013-4-13,67,50,36,44,38,34,96,69,32,30.05,29.88,11,2,12,0.00
2013-4-14,76,55,33,50,40,32,97,62,26,30.10,29.95,12,1,13,0.01
2013-4-15,68,58,49,58,52,47,94,82,62,30.14,29.94,11,1,11,0.08
2013-4-16,80,64,48,60,54,46,97,73,38,30.24,30.08,9,1,10,0.00
2013-4-17,68,60,54,63,58,53,98,92,80,30.23,30.08,11,0,11,1.05
2013-4-18,75,66,54,61,55,52,97,71,48,30.07,29.84,15,2,15,1.05
2013-4-19,71,60,44,62,53,35,95,79,65,29.93,29.58,17,4,17,0.46
2013-4-20,58,45,33,37,32,26,90,63,32,30.32,29.93,13,2,13,0.00
2013-4-21,64,46,29,41,33,27,95,64,33,30.47,30.31,9,1,11,0.00
2013-4-22,66,49,33,46,38,31,96,68,38,30.41,30.18,5,1,5,0.00
2013-4-23,72,52,31,50,39,29,93,66,33,30.26,30.02,9,1,9,0.00
2013-4-24,74,55,39,58,48,38,97,80,47,30.14,29.90,19,2,21,0.22
2013-4-25,61,47,32,43,37,31,97,72,40,30.35,30.14,8,1,8,0.00
2013-4-26,67,49,30,46,37,29,97,69,28,30.46,30.30,7,0,7,0.00
2013-4-27,62,54,49,53,48,44,96,82,60,30.36,30.17,7,0,7,0.13
2013-4-28,59,53,48,54,50,44,95,88,74,30.17,29.92,13,1,14,0.50
2013-4-29,68,57,49,56,52,47,97,84,59,30.02,29.93,8,1,8,0.00
2013-4-30,80,62,47,65,54,46,98,79,43,30.10,29.96,8,1,8,0.00